CAPE
850 1135 918 995 1048 1166 2134 2047 2453 2644 3461 3650 3012 2823 2705 2352 2691 1858 1586 1760 1276 1121 1987 778 2329 2737 2049 3062 3379 3316 3366 3293 2866
1204 1296 1019 998 1259 1391 1946 2213 2627 2979 3679 3557 3184 2743 2695 2481 2055 2220 1954 2333 2469 2704 969 439 1857 2172 2534 2938 3030 2770 3247 2947 3184
1525 1610 1655 1649 1634 1462 1762 1769 2381 2689 3506 3394 3317 2895 2579 2265 2155 2110 2285 2699 2294 2580 2382 1089 1302 1778 2092 2800 2868 3415 3285 2871 3036
1296 1441 1594 1712 1863 1503 1618 1681 2167 2643 3152 3289 3399 3112 2524 2391 2063 1859 2111 2575 2779 2566 3137 1579 578 368 246 1929 3179 2943 3175 2848 2871
940 1184 1298 1577 1969 2380 3169 3241 2970 2598 3044 3029 3213 3315 3324 2595 2300 2024 1708 1905 2541 2705 3263 3140 836 381 0 1687 2929 2914 2808 2833 1887
591 585 823 1141 1269 1809 2682 2944 3461 3475 3201 3136 2997 3254 3172 2643 2535 2257 1926 1611 1817 2518 2531 2609 2327 1639 1882 2732 2712 2885 2469 3155 2750
286 243 409 388 851 1176 1352 1968 2523 2707 3040 2612 2682 2979 2869 2877 2661 2229 1942 2023 1926 2095 2575 2040 2447 2572 2730 2638 2578 2966 2919 2751 2602
30 0 0 10 47 545 1344 1698 1960 2063 2444 3221 2979 2290 3345 3245 3227 2865 2592 2171 2708 2125 2712 2399 1987 2368 2644 2963 2671 2331 2804 2740 2433
2 0 0 0 0 6 77 315 861 1323 1885 1963 2357 2452 2300 2895 2824 3333 3140 3060 2830 3205 2525 2758 2554 2392 2446 2887 2295 1435 1111 2141 2111
1 2 0 0 0 0 41 82 317 445 963 1658 1989 2191 2901 2516 2795 3067 2641 2536 2892 2702 2930 2872 2568 2497 2437 2500 2691 1328 1075 1115 2171
3 0 0 0 0 0 0 0 1 189 287 886 1654 2219 2251 2574 2139 1801 2892 2435 2675 2936 2884 2794 2748 2322 2429 2537 2715 2027 1759 1054 1422
0 0 0 0 0 0 175 125 101 160 278 484 829 1338 2099 2444 2732 2466 2293 2474 2611 2647 2788 2675 2650 2565 2597 2624 2530 2389 2037 1554 1536
0 0 0 0 1 13 13 212 286 421 371 362 426 763 1494 2486 2600 1459 1113 2073 2596 2602 2381 2701 2823 2811 2692 2523 2650 2533 2194 1650 1515
0 0 0 6 21 70 268 408 510 695 721 685 817 998 1375 1645 2436 1384 478 986 1301 1615 1874 2136 2385 2583 2752 2868 2718 2643 2317 1799 1345
1 8 24 147 120 273 465 480 550 603 828 1181 1372 1415 1290 1279 1625 1781 1108 90 4 91 352 1164 1621 2282 2368 2507 2718 2299 2369 2196 1626
7 3 31 118 134 259 505 701 751 931 933 1006 1016 1166 1148 959 1025 1510 1205 700 224 50 3 108 512 1332 2067 2058 2433 2822 2302 2065 1926
13 20 29 135 354 420 530 676 880 911 923 1093 1097 961 1022 930 895 911 1351 1225 768 199 32 3 0 56 786 1065 1036 1792 2664 2202 2110
22 28 82 149 326 436 500 685 745 783 765 866 836 825 668 913 748 846 982 1355 1526 880 488 6 16 32 22 272 608 896 830 2236 1712
72 82 132 234 406 450 406 405 748 744 905 932 869 656 414 332 741 743 833 927 1540 1197 624 325 209 24 0 0 10 176 248 1017 1932
38 138 281 378 316 298 496 557 571 768 801 971 971 979 969 804 356 699 765 572 1360 1561 856 503 306 95 0 1 0 0 0 519 1474
CIN
-3 -17 -52 -12 -34 -29 -23 -33 -12 -4 -13 -3 -9 -3 -2 -5 -1 -4 -21 -11 -23 -37 -7 -9 -15 -10 -22 -4 -6 -7 -8 -8 -9
-23 -12 -4 -4 -12 -11 -11 -8 -13 -5 -15 -2 -2 -3 -1 -3 -9 -3 -4 -17 -8 -8 -13 -108 -13 -42 -8 -9 -8 -12 -10 -5 -7
-52 -54 -55 -41 -17 -10 -13 -6 -10 -14 -7 -8 -0 -0 -5 -9 -7 -6 -13 -20 -17 -12 -24 -66 -19 -29 -37 -9 -10 -6 -5 -11 -16
-81 -86 -86 -78 -55 -28 -9 -4 -4 -22 -14 -12 -0 -0 -8 -9 -19 -15 -8 -2 -6 -15 -9 -46 -67 -17 -32 -9 -8 -12 -10 -20 -6
-139 -140 -114 -105 -96 -67 -45 -27 -26 -41 -28 -25 -11 -2 -2 -3 -13 -14 -13 -11 -3 -8 -6 -9 -18 -229 -0 -31 -6 -10 -7 -7 -14
-148 -163 -156 -126 -127 -100 -47 -44 -42 -82 -37 -20 -6 -3 -2 -1 -0 -5 -11 -23 -13 -8 -15 -15 -10 -33 -20 -15 -7 -10 -17 -10 -16
-144 -173 -179 -183 -132 -113 -114 -75 -47 -59 -56 -90 -49 -9 -4 -5 -3 -1 -7 -3 -15 -10 -15 -14 -6 -19 -11 -23 -15 -3 -4 -11 -17
-212 -0 -0 -68 -262 -109 -36 -37 -37 -35 -34 -41 -59 -6 -30 -20 -12 -9 -7 -9 -11 -17 -16 -6 -22 -16 -6 -6 -9 -4 -7 -16 -22
-100 -0 -0 -0 -0 -253 -199 -128 -61 -40 -16 -17 -22 -35 -22 -62 -27 -10 -15 -15 -26 -19 -18 -19 -12 -11 -7 -5 -0 -6 -23 -12 -17
-5 -0 -0 -0 -0 -0 -226 -170 -72 -66 -38 -10 -0 -3 -2 -37 -34 -7 -8 -11 -9 -12 -11 -11 -13 -6 -7 -6 -6 -29 -10 -9 -10
-2 -0 -0 -0 -0 -0 -0 -0 -86 -74 -78 -25 -1 -0 -1 -1 -31 -47 -10 -15 -8 -9 -13 -9 -8 -9 -6 -5 -3 -10 -16 -9 -59
-0 -0 -0 -0 -0 -0 -36 -52 -57 -42 -32 -21 -8 -2 -1 -1 -2 -3 -13 -13 -11 -9 -7 -7 -3 -5 -7 -5 -4 -1 -8 -16 -48
-0 -0 -0 -0 -0 -0 -15 -15 -23 -27 -43 -32 -24 -2 -1 -1 -1 -41 -95 -6 -1 -8 -18 -4 -2 -1 -3 -1 -4 -1 -3 -16 -28
-0 -0 -0 -0 -5 -33 -11 -8 -19 -12 -7 -12 -4 -3 -3 -2 -2 -41 -192 -78 -54 -31 -15 -10 -5 -5 -4 -3 -4 -2 -2 -16 -33
-0 -0 -76 -19 -27 -7 -7 -24 -24 -15 -7 -7 -2 -2 -3 -4 -2 -5 -30 -189 -102 -166 -144 -0 -20 -6 -8 -13 -5 -2 -10 -14 -26
-3 -1 -64 -42 -60 -38 -6 -2 -1 -1 -5 -6 -10 -2 -2 -7 -7 -2 -22 -40 -157 -121 -118 -31 -0 -0 -2 -19 -14 -3 -9 -39 -34
-0 -0 -7 -36 -16 -15 -6 -6 -0 -0 -1 -2 -1 -1 -3 -2 -3 -6 -10 -13 -19 -37 -116 -64 -0 -4 -0 -1 -3 -9 -6 -31 -32
-0 -0 -59 -46 -13 -0 -0 -0 -0 -0 -0 -2 -1 -1 -4 -2 -0 -4 -4 -21 -2 -20 -35 -80 -77 -119 -136 -92 -37 -4 -0 -7 -63
-72 -35 -54 -29 -0 -0 -0 -0 -0 -0 -0 -0 -0 -0 -4 -11 -0 -0 -0 -1 -30 -47 -35 -52 -51 -154 -81 -26 -14 -8 -7 -2 -19
-4 -52 -27 -2 -9 -4 -0 -0 -0 -0 -1 -0 -0 -0 -0 -1 -11 -1 -0 -3 -25 -13 -48 -70 -57 -92 -0 -24 -0 -0 -0 -0 -2
Wind_Speed
21 19 18 18 18 15 15 16 14 12 14 12 11 10 8 7 5 4 4 7 6 5 9 12 15 13 15 12 11 7 8 9 9
13 12 17 28 23 20 20 18 15 16 19 15 14 13 10 8 8 6 6 7 7 10 13 11 7 15 16 16 13 7 10 10 11
21 16 13 9 5 12 23 20 18 15 16 16 16 12 13 13 11 8 3 10 10 11 16 10 27 25 13 17 14 15 11 11 9
31 23 21 18 13 10 7 19 19 19 16 16 14 14 14 15 15 12 8 7 14 12 18 23 28 19 15 16 17 16 14 10 14
33 32 29 29 26 21 20 21 18 24 24 21 17 13 16 15 16 14 14 11 14 16 19 16 22 18 nan 6 13 15 13 13 11
36 35 34 34 32 30 27 26 26 26 23 24 21 20 18 18 18 17 14 15 10 19 22 17 13 19 13 12 11 13 14 20 19
37 37 35 34 35 34 33 31 29 28 31 30 24 23 21 23 22 20 17 12 15 12 19 20 15 17 18 17 15 14 16 18 18
nan nan nan nan nan 34 35 35 35 33 32 34 33 33 25 25 28 24 20 18 14 14 15 18 16 14 15 17 14 15 15 17 20
nan nan nan nan nan nan nan 36 36 36 37 36 36 35 31 31 26 25 21 20 20 18 14 16 17 14 13 14 14 15 13 17 21
nan nan nan nan nan nan nan nan 38 40 41 41 41 39 37 35 34 27 24 22 22 20 18 19 16 15 13 13 14 13 16 16 19
nan nan nan nan nan nan nan nan nan 43 42 43 44 45 44 41 36 35 29 26 22 23 25 18 18 17 15 15 15 18 21 22 20
nan nan nan nan nan nan 42 39 38 38 38 39 42 45 50 52 50 42 37 31 27 25 27 25 19 19 17 15 15 20 21 24 21
nan nan nan nan nan nan nan 27 24 24 27 29 29 36 46 51 53 55 50 41 37 33 27 26 26 22 18 15 15 20 22 24 20
nan nan nan nan nan nan 23 26 30 30 31 34 33 32 32 33 43 50 49 52 55 50 35 28 27 23 22 18 17 18 24 23 19
nan nan nan 34 32 28 30 29 28 26 27 31 32 35 35 35 30 35 43 nan nan nan 59 44 29 27 25 25 23 20 24 26 19
nan nan nan 29 29 29 33 34 32 29 27 29 26 30 32 34 32 36 42 41 47 nan nan 28 57 36 32 29 31 27 24 28 22
nan nan nan 27 26 29 34 34 32 29 28 28 31 31 34 36 31 32 38 41 43 47 nan nan nan nan 42 43 44 37 30 29 28
nan nan nan 22 25 28 26 29 27 24 24 29 30 32 33 37 36 32 34 37 41 41 39 nan nan nan nan 40 42 42 48 26 32
nan nan 21 24 24 26 25 24 22 23 21 23 26 24 30 35 34 33 34 36 39 33 40 42 35 nan nan nan nan 47 42 17 30
nan 21 22 24 25 23 20 16 12 11 16 20 22 26 28 30 32 34 34 33 34 34 37 37 33 nan nan nan nan nan nan 37 40
Wind_Direction
330 342 359 23 9 22 357 18 15 359 337 339 339 344 349 338 358 311 318 331 303 271 277 270 292 271 265 240 240 233 261 264 254
276 269 337 360 359 2 4 3 360 8 356 355 347 357 348 347 334 347 335 317 281 262 266 248 319 270 267 258 248 247 257 249 251
290 276 265 257 264 349 347 353 355 359 346 355 8 357 336 332 331 342 339 300 303 288 279 281 251 221 221 251 250 251 255 262 268
298 290 277 273 268 263 275 331 331 335 339 342 354 352 339 344 335 337 328 296 297 298 286 270 279 244 221 237 244 246 252 244 248
284 286 281 279 273 263 252 248 251 316 319 324 329 334 329 336 326 339 350 335 305 295 285 277 280 284 nan 252 249 256 255 257 241
282 275 272 273 271 266 261 255 251 244 279 301 314 315 320 324 328 331 337 341 333 305 299 294 281 300 296 263 261 251 278 254 241
285 280 274 266 264 265 266 265 259 251 251 255 255 291 307 313 316 323 329 325 323 325 305 308 297 283 291 286 277 269 279 265 238
nan nan nan nan nan 271 268 265 264 260 253 256 253 250 261 276 296 301 302 311 304 311 305 300 298 287 286 292 281 264 269 278 251
nan nan nan nan nan nan nan 271 268 268 267 259 256 255 250 250 260 283 287 283 291 298 293 292 285 283 285 271 257 277 279 270 268
nan nan nan nan nan nan nan nan 275 267 262 263 262 254 252 249 254 257 266 275 275 279 284 277 284 275 271 279 268 258 271 283 265
nan nan nan nan nan nan nan nan nan 269 264 261 257 258 256 252 246 259 258 263 268 274 274 274 267 273 271 265 267 270 268 271 260
nan nan nan nan nan nan 284 283 282 275 270 265 261 256 251 252 252 250 253 255 258 262 265 271 271 259 266 273 262 272 275 267 260
nan nan nan nan nan nan nan 284 277 280 283 280 272 266 255 253 257 254 250 248 247 245 253 259 260 262 259 264 265 268 273 272 255
nan nan nan nan nan nan 290 294 287 282 283 286 279 261 256 254 258 261 257 251 247 236 231 244 250 251 251 251 254 255 269 272 259
nan nan nan 277 274 271 276 281 288 284 271 267 269 265 262 259 253 263 260 nan nan nan 235 222 231 248 244 242 246 250 260 271 276
nan nan nan 280 279 285 285 287 284 285 276 262 268 266 269 267 259 260 266 257 253 nan nan 255 210 215 236 241 239 239 256 273 274
nan nan nan 279 270 272 281 284 283 281 273 270 265 260 258 262 265 265 268 269 261 268 nan nan nan nan 213 225 227 224 233 243 249
nan nan nan 284 296 295 301 287 286 283 274 265 263 262 264 262 266 265 265 273 272 272 272 nan nan nan nan 226 221 225 212 223 246
nan nan 277 295 296 297 312 293 288 279 273 270 266 263 270 265 262 263 262 265 271 274 278 287 278 nan nan nan nan 209 200 190 251
nan 281 293 284 297 296 309 302 297 268 277 281 274 270 268 263 258 254 254 260 262 261 265 268 244 nan nan nan nan nan nan 211 219